[Iaude] MPEC S84: 2016 SR3 [a=2.13,e=0.46,i=7.5,H=22.8]

mpec at si.edu mpec at si.edu
Thu Sep 29 15:20:00 EDT 2016


M.P.E.C. 2016-S84                                Issued 2016 Sept. 28, 16:01 UT
 
     The Minor Planet Electronic Circulars contain information on unusual
         minor planets and routine data on comets.  They are published
    on behalf of Division F of the International Astronomical Union by the
          Minor Planet Center, Smithsonian Astrophysical Observatory,
                          Cambridge, MA 02138, U.S.A.

             Prepared using the Tamkin Foundation Computer Network

                              MPC at CFA.HARVARD.EDU
            URL http://www.minorplanetcenter.net/    ISSN 1523-6714


                                   2016 SR3
 
Observations:
     K16S03R* C2016 09 25.42858 00 02 20.43 -03 35 49.6          19.5 VqES084G96
     K16S03R  C2016 09 25.43414 00 02 20.61 -03 35 30.0          19.5 VqES084G96
     K16S03R  C2016 09 25.43972 00 02 20.80 -03 35 09.0          19.5 VqES084G96
     K16S03R  C2016 09 25.45666 00 02 21.37 -03 34 08.1          19.5 VqES084G96
     K16S03R  C2016 09 25.45936 00 02 21.47 -03 33 58.3          19.5 VqES084G96
     K16S03R  C2016 09 25.46179 00 02 21.55 -03 33 49.9          19.5 VqES084G96
     K16S03R  C2016 09 25.46434 00 02 21.68 -03 33 40.3          19.6 VqES084G96
     K16S03R  C2016 09 25.90495 00 02 44.43 -03 07 35.0                qES084246
     K16S03R  C2016 09 25.90550 00 02 44.44 -03 07 33.2                qES084246
     K16S03R  C2016 09 25.90690 00 02 44.52 -03 07 29.6                qES084246
     K16S03R  C2016 09 25.90724 00 02 44.56 -03 07 27.3                qES084246
     K16S03R KC2016 09 25.92130 00 02 45.07 -03 06 34.3          19.5 RqES084104
     K16S03R KC2016 09 25.92663 00 02 45.25 -03 06 15.4          19.6 RqES084104
     K16S03R KC2016 09 25.93099 00 02 45.39 -03 06 00.3          19.5 RqES084104
     K16S03R KC2016 09 26.04915400 02 48.33 -02 57 59.2          19.0 RqES084K92
     K16S03R KC2016 09 26.05186700 02 48.41 -02 57 49.7          19.6 RqES084K92
     K16S03R KC2016 09 26.05458900 02 48.50 -02 57 39.7          19.0 RqES084K92
     K16S03R IC2016 09 26.05730700 02 48.59 -02 57 30.2                qES084K92
     K16S03R  C2016 09 26.39316 00 03 05.948-02 38 27.34         20.2 wLES084F51
     K16S03R  C2016 09 26.40400 00 03 06.222-02 37 48.99         20.0 wLES084F51
     K16S03R  C2016 09 26.42557 00 03 06.752-02 36 33.01         20.1 wLES084F51
     K16S03R KC2016 09 26.59698 00 03 13.89 -02 25 46.9          19.8 VqES084E23
     K16S03R KC2016 09 26.61318 00 03 14.34 -02 24 50.1          19.6 VqES084E23
     K16S03R KC2016 09 26.62938 00 03 14.76 -02 23 52.8          20.0 VqES084E23
     K16S03R KC2016 09 27.14991400 03 39.71 -01 54 39.6          19.6 VuES084H21
     K16S03R KC2016 09 27.15407800 03 39.84 -01 54 25.3          19.4 VuES084H21
     K16S03R KC2016 09 27.16017800 03 40.01 -01 54 04.4          19.8 VuES084H21
     K16S03R KC2016 09 28.05855 00 04 16.30 -01 02 56.1          19.4 RqES084204
     K16S03R KC2016 09 28.06678 00 04 16.57 -01 02 28.4                qES084204
     K16S03R HC2016 09 28.07567 00 04 16.85 -01 01 57.8                qES084204
     K16S03R |C2016 09 28.19341 00 04 23.13 -00 54 23.7          19.8 VuES084807
     K16S03R |C2016 09 28.19492 00 04 23.15 -00 54 18.6          20.0 VuES084807
     K16S03R |C2016 09 28.19699 00 04 23.20 -00 54 11.5          19.8 VuES084807
 
Observer details:
104 San Marcello Pistoiese.  Observer P. Bacci.  Measurers P. Bacci, L. Tesi,
    G. Fagioli.  0.60-m f/4 reflector + CCD.
204 Schiaparelli Observatory.  Observer L. Buzzi.  0.60-m f/4.64 reflector
    + CCD.
246 Klet Observatory-KLENOT.  Observers M. Tichy, J. Ticha.  Measurer M. Tichy.
    1.06-m KLENOT Telescope + CCD.
807 Cerro Tololo.  Observers T. Linder, R. Holmes.  0.61-m f/6.5 astrograph
    + CCD.
E23 Arcadia.  Observer A. Hidas.  0.35-m f/1.9 reflector + CCD.
F51 Pan-STARRS 1, Haleakala.  Observers B. Gibson, T. Goggia, S. Kahale,
    A. Schultz, M. Willman.  Measurers K. Chambers, S. Chastel, L. Denneau,
    H. Flewelling, M. Huber, E. Lilly, E. Magnier, R. Wainscoat, C. Waters,
    R. Weryk.  1.8-m Ritchey-Chretien + CCD.
G96 Mt. Lemmon Survey.  Observer D. C. Fuls.  Measurers E. J. Christensen,
    D. C. Fuls, A. R. Gibbs, A. D. Grauer, J. A. Johnson, R. A. Kowalski,
    S. M. Larson, G. J. Leonard, R. G. Matheny, R. L. Seaman, F. C. Shelly.
    1.5-m reflector + 10K CCD.
H21 Astronomical Research Observatory, Westfield.  Observer R. Holmes.
    Measurers S. Foglia, L. Buzzi, T. Linder, R. Holmes.  0.61-m f/4.5
    astrograph + CCD.
K92 Sutherland-LCOGT B.  Observers T. Lister, S. Greenstreet, E. Gomez.
    Measurer T. Lister.  1.0-m f/8 Ritchey-Chretien + CCD.
 
Orbital elements:
2016 SR3                                                 Earth MOID = 0.1591 AU
Epoch 2016 July 31.0 TT = JDT 2457600.5                 MPC
M 348.52916              (2000.0)            P               Q
n   0.31693109     Peri.  336.87895     +0.95556912     +0.29444412
a   2.1305553      Node     6.04687     -0.24584025     +0.82190849
e   0.4561293      Incl.    7.52515     -0.16263526     +0.48761573
P   3.11           H   22.8           G   0.15           U   7
Residuals in seconds of arc
160925 G96  0.1+  0.1+    160925 104  0.2-  0.1-    160926 E23  0.3+  0.0
160925 G96  0.0   0.4-    160925 104  0.1+  0.1-    160926 E23  0.1-  0.5+
160925 G96  0.0   0.5+    160925 104  0.2+  0.5-    160927 H21  0.1-  0.1-
160925 G96  0.2-  0.2+    160926 K92  0.1+  0.0     160927 H21  0.0   0.2-
160925 G96  0.2-  0.3+    160926 K92  0.0   0.2-    160927 H21  0.1-  0.3-
160925 G96  0.3-  0.1-    160926 K92  0.0   0.2+    160928 204  0.1+  0.3+
160925 G96  0.3+  0.3+    160926 K92  0.1+  0.0     160928 204  0.3+  0.1+
160925 246  0.4+  0.1+    160926 F51  0.3-  0.0     160928 204  0.2+  0.7+
160925 246  0.3+  0.0     160926 F51  0.2-  0.2+    160928 807  0.3+  0.4-
160925 246  0.9+  1.4-    160926 F51  0.3-  0.2+    160928 807  0.0   0.4-
160925 246  1.3+  0.3-    160926 E23  0.2+  0.0     160928 807  0.1-  0.3-

Ephemeris:
2016 SR3                 a,e,i = 2.13, 0.46, 8                   q = 1.1587
Date    TT    R. A. (2000) Decl.     Delta      r     Elong.  Phase     V
2016 08 29    23 30 00.8 -32 50 18   0.1674  1.1613   152.8    23.4    20.3
...
2016 09 13    23 51 07.7 -17 12 08   0.1603  1.1618   165.1    12.9    19.9
...
2016 09 21    23 58 51.1 -08 12 44   0.1685  1.1712   172.4     6.5    19.8
...
2016 09 27    00 03 32.0 -02 02 50   0.1804  1.1822   175.3     3.9    19.8
2016 09 28    00 04 15.1 -01 05 42   0.1829  1.1844   175.3     4.0    19.8
2016 09 29    00 04 57.5 -00 10 02   0.1855  1.1866   175.0     4.2    19.9
...
2016 10 05    00 09 03.5 +04 52 03   0.2039  1.2019   171.3     7.2    20.3
...
2016 10 13    00 14 37.6 +10 09 30   0.2355  1.2270   165.3    11.9    20.8
...
2016 10 28    00 26 55.9 +16 27 39   0.3154  1.2861   154.9    19.1    21.8

A. U. Tomatic                (C) Copyright 2016 MPC           M.P.E.C. 2016-S84




More information about the Iaude mailing list